Location: Castellar de la Frontera
(36.3200°N, 5.4500°W)
Time: 09:29:20
(UTC+02:00)

ISS - Visible Passes

Search period start: 23 September 2017 00:00
Search period end: 03 October 2017 00:00
Orbit: 401 x 407 km, 51.6° (Epoch: 23 September)

Date Brightness Start Highest point End Pass type
(mag) Time Alt. Az. Time Alt. Az. Time Alt. Az.
23 Sep -1.0 06:27:21 10° SSE 06:27:21 10° SSE 06:27:22 10° SSE visible
23 Sep -2.3 21:23:19 10° S 21:25:22 21° SE 21:25:22 21° SE visible
24 Sep -2.5 22:06:38 10° WSW 22:08:54 39° W 22:08:54 39° W visible
25 Sep -3.9 21:14:19 10° SW 21:17:31 63° SE 21:19:28 22° ENE visible
25 Sep -0.2 22:52:08 10° WNW 22:52:10 10° WNW 22:52:10 10° WNW visible
26 Sep -1.9 21:58:56 10° W 22:01:43 25° NNW 22:02:29 23° N visible
27 Sep -2.9 21:06:05 10° WSW 21:09:15 46° NW 21:12:25 10° NE visible
28 Sep -1.0 21:51:51 10° WNW 21:53:41 14° NNW 21:55:16 11° N visible
29 Sep -1.5 20:58:28 10° W 21:01:05 22° NNW 21:03:41 10° NNE visible
01 Oct -1.0 20:51:32 10° NW 20:53:00 12° NNW 20:54:28 10° N visible
